owner,sensor,date,latitude,longitude,vertical_datum,mass_concentration_of_oxygen_in_sea_water,qcFlag 
SCCF RECON,ioos:station:SCCF:53:1,2009-01-09T20:00:00Z,26.6493,-81.8810,2.001,7.5,1111122 
SCCF RECON,ioos:station:SCCF:53:1,2009-01-09T21:00:00Z,26.6493,-81.8810,1.98,6.33,1111122 
SCCF RECON,ioos:station:SCCF:53:1,2009-01-09T22:00:00Z,26.6493,-81.8810,1.988,6.01,1111122 
SCCF RECON,ioos:station:SCCF:53:1,2009-01-09T23:00:00Z,26.6493,-81.8810,1.991,5.94,1111122 
SCCF RECON,ioos:station:SCCF:53:1,2009-01-10T00:00:00Z,26.6493,-81.8810,2.004,5.75,1111122 
SCCF RECON,ioos:station:SCCF:53:1,2009-01-10T01:00:00Z,26.6493,-81.8810,2.04,6.08,1111122 
SCCF RECON,ioos:station:SCCF:53:1,2009-01-10T02:00:00Z,26.6493,-81.8810,2.1,6.22,1111122 
SCCF RECON,ioos:station:SCCF:53:1,2009-01-10T03:00:00Z,26.6493,-81.8810,2.15,6.61,1111122 
SCCF RECON,ioos:station:SCCF:53:1,2009-01-10T04:00:00Z,26.6493,-81.8810,2.207,6.57,1111122 
SCCF RECON,ioos:station:SCCF:53:1,2009-01-10T05:00:00Z,26.6493,-81.8810,2.26,6.52,1111122 
SCCF RECON,ioos:station:SCCF:53:1,2009-01-10T06:00:00Z,26.6493,-81.8810,2.31,6.71,1111122 
SCCF RECON,ioos:station:SCCF:53:1,2009-01-10T07:00:00Z,26.6493,-81.8810,2.35,6.86,1111122 
SCCF RECON,ioos:station:SCCF:53:1,2009-01-10T08:00:00Z,26.6493,-81.8810,2.31,6.3,1111122 
SCCF RECON,ioos:station:SCCF:53:1,2009-01-10T09:00:00Z,26.6493,-81.8810,2.24,6.79,1111122 
SCCF RECON,ioos:station:SCCF:53:1,2009-01-10T10:00:00Z,26.6493,-81.8810,2.19,6.22,1111122 
SCCF RECON,ioos:station:SCCF:53:1,2009-01-10T11:00:00Z,26.6493,-81.8810,2.136,6.12,1111122 
SCCF RECON,ioos:station:SCCF:53:1,2009-01-10T12:00:00Z,26.6493,-81.8810,2.081,6.24,1111122 
SCCF RECON,ioos:station:SCCF:53:1,2009-01-10T13:00:00Z,26.6493,-81.8810,2.038,6.29,1111122 
SCCF RECON,ioos:station:SCCF:53:1,2009-01-10T14:00:00Z,26.6493,-81.8810,1.99,6.4,1111122 
SCCF RECON,ioos:station:SCCF:53:1,2009-01-10T15:00:00Z,26.6493,-81.8810,1.947,6.26,1111122 
SCCF RECON,ioos:station:SCCF:53:1,2009-01-10T16:00:00Z,26.6493,-81.8810,1.919,5.81,1111122 
SCCF RECON,ioos:station:SCCF:53:1,2009-01-10T17:00:00Z,26.6493,-81.8810,1.912,5.94,1111122 
SCCF RECON,ioos:station:SCCF:53:1,2009-01-10T18:00:00Z,26.6493,-81.8810,1.941,6.33,1111122 
SCCF RECON,ioos:station:SCCF:53:1,2009-01-10T19:00:00Z,26.6493,-81.8810,1.98,6.88,1111122 
SCCF RECON,ioos:station:SCCF:53:1,2009-01-10T20:00:00Z,26.6493,-81.8810,2.015,6.9,1111122 
SCCF RECON,ioos:station:SCCF:53:1,2009-01-10T21:00:00Z,26.6493,-81.8810,2.058,7.57,1111122 
SCCF RECON,ioos:station:SCCF:53:1,2009-01-10T22:00:00Z,26.6493,-81.8810,2.068,7.58,1111122 
SCCF RECON,ioos:station:SCCF:53:1,2009-01-10T23:00:00Z,26.6493,-81.8810,2.081,7.28,1111122 
SCCF RECON,ioos:station:SCCF:53:1,2009-01-11T00:00:00Z,26.6493,-81.8810,2.093,8.09,1111122 
SCCF RECON,ioos:station:SCCF:53:1,2009-01-11T01:00:00Z,26.6493,-81.8810,2.1,7.79,1111122 
SCCF RECON,ioos:station:SCCF:53:1,2009-01-11T02:00:00Z,26.6493,-81.8810,2.13,8.02,1111122 
SCCF RECON,ioos:station:SCCF:53:1,2009-01-11T03:00:00Z,26.6493,-81.8810,2.18,8.15,1111122 
SCCF RECON,ioos:station:SCCF:53:1,2009-01-11T04:00:00Z,26.6493,-81.8810,2.24,8.25,1111122 
SCCF RECON,ioos:station:SCCF:53:1,2009-01-11T05:00:00Z,26.6493,-81.8810,2.3,7.66,1111122 
SCCF RECON,ioos:station:SCCF:53:1,2009-01-11T06:00:00Z,26.6493,-81.8810,2.363,7.45,1111122 
SCCF RECON,ioos:station:SCCF:53:1,2009-01-11T07:00:00Z,26.6493,-81.8810,2.418,7.36,1111122 
SCCF RECON,ioos:station:SCCF:53:1,2009-01-11T08:00:00Z,26.6493,-81.8810,2.43,7.2,1111122 
SCCF RECON,ioos:station:SCCF:53:1,2009-01-11T09:00:00Z,26.6493,-81.8810,2.38,7.01,1111122 
SCCF RECON,ioos:station:SCCF:53:1,2009-01-11T10:00:00Z,26.6493,-81.8810,2.31,7.38,1111122 
SCCF RECON,ioos:station:SCCF:53:1,2009-01-11T11:00:00Z,26.6493,-81.8810,2.25,6.96,1111122 
SCCF RECON,ioos:station:SCCF:53:1,2009-01-11T12:00:00Z,26.6493,-81.8810,2.19,6.83,1111122 
SCCF RECON,ioos:station:SCCF:53:1,2009-01-11T13:00:00Z,26.6493,-81.8810,2.14,6.7,1111122 
SCCF RECON,ioos:station:SCCF:53:1,2009-01-11T14:00:00Z,26.6493,-81.8810,2.085,6.5,1111122 
SCCF RECON,ioos:station:SCCF:53:1,2009-01-11T15:00:00Z,26.6493,-81.8810,2.025,6.38,1111122 
SCCF RECON,ioos:station:SCCF:53:1,2009-01-11T16:00:00Z,26.6493,-81.8810,1.98,6.51,1111122 
SCCF RECON,ioos:station:SCCF:53:1,2009-01-11T17:00:00Z,26.6493,-81.8810,1.96,6.55,1111122 
SCCF RECON,ioos:station:SCCF:53:1,2009-01-11T18:00:00Z,26.6493,-81.8810,1.96,6.46,1111122 
SCCF RECON,ioos:station:SCCF:53:1,2009-01-11T19:00:00Z,26.6493,-81.8810,2.005,6.49,1111122 
SCCF RECON,ioos:station:SCCF:53:1,2009-01-11T20:00:00Z,26.6493,-81.8810,2.05,6.38,1111122 
SCCF RECON,ioos:station:SCCF:53:1,2009-01-11T21:00:00Z,26.6493,-81.8810,2.09,6.81,1111122 
SCCF RECON,ioos:station:SCCF:53:1,2009-01-11T22:00:00Z,26.6493,-81.8810,2.12,7.64,1111122 
SCCF RECON,ioos:station:SCCF:53:1,2009-01-11T23:00:00Z,26.6493,-81.8810,2.119,7.96,1111122 
SCCF RECON,ioos:station:SCCF:53:1,2009-01-12T00:00:00Z,26.6493,-81.8810,2.11,7.78,1111122 
SCCF RECON,ioos:station:SCCF:53:1,2009-01-12T01:00:00Z,26.6493,-81.8810,2.08,8.13,1111122 
SCCF RECON,ioos:station:SCCF:53:1,2009-01-12T02:00:00Z,26.6493,-81.8810,2.05,8.19,1111122 
SCCF RECON,ioos:station:SCCF:53:1,2009-01-12T03:00:00Z,26.6493,-81.8810,2.06,7.98,1111122 
SCCF RECON,ioos:station:SCCF:53:1,2009-01-12T04:00:00Z,26.6493,-81.8810,2.12,7.74,1111122 
SCCF RECON,ioos:station:SCCF:53:1,2009-01-12T05:00:00Z,26.6493,-81.8810,2.18,7.18,1111122 
SCCF RECON,ioos:station:SCCF:53:1,2009-01-12T06:00:00Z,26.6493,-81.8810,2.24,6.83,1111122 
SCCF RECON,ioos:station:SCCF:53:1,2009-01-12T07:00:00Z,26.6493,-81.8810,2.31,6.41,1111122 
SCCF RECON,ioos:station:SCCF:53:1,2009-01-12T08:00:00Z,26.6493,-81.8810,2.36,6.79,1111122 
SCCF RECON,ioos:station:SCCF:53:1,2009-01-12T09:00:00Z,26.6493,-81.8810,2.39,6.73,1111122 
SCCF RECON,ioos:station:SCCF:53:1,2009-01-12T10:00:00Z,26.6493,-81.8810,2.35,6.78,1111122 
SCCF RECON,ioos:station:SCCF:53:1,2009-01-12T11:00:00Z,26.6493,-81.8810,2.29,7.21,1111122 
SCCF RECON,ioos:station:SCCF:53:1,2009-01-12T12:00:00Z,26.6493,-81.8810,2.24,6.86,1111122 
SCCF RECON,ioos:station:SCCF:53:1,2009-01-12T13:00:00Z,26.6493,-81.8810,2.18,6.75,1111122 
SCCF RECON,ioos:station:SCCF:53:1,2009-01-12T14:00:00Z,26.6493,-81.8810,2.125,6.65,1111122 
SCCF RECON,ioos:station:SCCF:53:1,2009-01-12T15:00:00Z,26.6493,-81.8810,2.07,6.32,1111122 
SCCF RECON,ioos:station:SCCF:53:1,2009-01-12T16:00:00Z,26.6493,-81.8810,2.02,6.38,1111122 
SCCF RECON,ioos:station:SCCF:53:1,2009-01-12T17:00:00Z,26.6493,-81.8810,1.96,6.46,1111122 
SCCF RECON,ioos:station:SCCF:53:1,2009-01-12T18:00:00Z,26.6493,-81.8810,1.957,6.75,1111122 
SCCF RECON,ioos:station:SCCF:53:1,2009-01-12T19:00:00Z,26.6493,-81.8810,1.99,6.44,1111122 
SCCF RECON,ioos:station:SCCF:53:1,2009-01-12T20:00:00Z,26.6493,-81.8810,2.03,6.66,1111122 
SCCF RECON,ioos:station:SCCF:53:1,2009-01-12T21:00:00Z,26.6493,-81.8810,2.07,6.7,1111122 
SCCF RECON,ioos:station:SCCF:53:1,2009-01-12T22:00:00Z,26.6493,-81.8810,2.11,6.58,1111122 
SCCF RECON,ioos:station:SCCF:53:1,2009-01-12T23:00:00Z,26.6493,-81.8810,2.101,6.45,1111122 
SCCF RECON,ioos:station:SCCF:53:1,2009-01-13T00:00:00Z,26.6493,-81.8810,2.07,6.35,1111122 
SCCF RECON,ioos:station:SCCF:53:1,2009-01-13T01:00:00Z,26.6493,-81.8810,2.04,6.32,1111122 
SCCF RECON,ioos:station:SCCF:53:1,2009-01-13T02:00:00Z,26.6493,-81.8810,2.01,6.03,1111122 
SCCF RECON,ioos:station:SCCF:53:1,2009-01-13T03:00:00Z,26.6493,-81.8810,1.98,5.81,1111122 
SCCF RECON,ioos:station:SCCF:53:1,2009-01-13T04:00:00Z,26.6493,-81.8810,1.975,5.62,1111122 
SCCF RECON,ioos:station:SCCF:53:1,2009-01-13T05:00:00Z,26.6493,-81.8810,2.04,5.92,1111122 
SCCF RECON,ioos:station:SCCF:53:1,2009-01-13T06:00:00Z,26.6493,-81.8810,2.1,6.57,1111122 
SCCF RECON,ioos:station:SCCF:53:1,2009-01-13T07:00:00Z,26.6493,-81.8810,2.16,6.55,1111122 
SCCF RECON,ioos:station:SCCF:53:1,2009-01-13T08:00:00Z,26.6493,-81.8810,2.22,6.23,1111122 
SCCF RECON,ioos:station:SCCF:53:1,2009-01-13T09:00:00Z,26.6493,-81.8810,2.28,6.03,1111122 
SCCF RECON,ioos:station:SCCF:53:1,2009-01-13T10:00:00Z,26.6493,-81.8810,2.29,5.95,1111122 
SCCF RECON,ioos:station:SCCF:53:1,2009-01-13T11:00:00Z,26.6493,-81.8810,2.26,5.86,1111122 
SCCF RECON,ioos:station:SCCF:53:1,2009-01-13T12:00:00Z,26.6493,-81.8810,2.202,6.27,1111122 
SCCF RECON,ioos:station:SCCF:53:1,2009-01-13T13:00:00Z,26.6493,-81.8810,2.15,5.6,1111122 
SCCF RECON,ioos:station:SCCF:53:1,2009-01-13T14:00:00Z,26.6493,-81.8810,2.099,5.5,1111122 
SCCF RECON,ioos:station:SCCF:53:1,2009-01-13T15:00:00Z,26.6493,-81.8810,2.04,5.69,1111122 
SCCF RECON,ioos:station:SCCF:53:1,2009-01-13T16:00:00Z,26.6493,-81.8810,1.99,5.61,1111122 
SCCF RECON,ioos:station:SCCF:53:1,2009-01-13T17:00:00Z,26.6493,-81.8810,1.941,5.63,1111122 
SCCF RECON,ioos:station:SCCF:53:1,2009-01-13T18:00:00Z,26.6493,-81.8810,1.94,5.93,1111122 
SCCF RECON,ioos:station:SCCF:53:1,2009-01-13T19:00:00Z,26.6493,-81.8810,1.991,6.43,1111122 
SCCF RECON,ioos:station:SCCF:53:1,2009-01-13T20:00:00Z,26.6493,-81.8810,2.041,6.97,1111122 
SCCF RECON,ioos:station:SCCF:53:1,2009-01-13T21:00:00Z,26.6493,-81.8810,2.092,6.98,1111122 
SCCF RECON,ioos:station:SCCF:53:1,2009-01-13T22:00:00Z,26.6493,-81.8810,2.161,6.95,1111122 
SCCF RECON,ioos:station:SCCF:53:1,2009-01-13T23:00:00Z,26.6493,-81.8810,2.211,6.99,1111122 
SCCF RECON,ioos:station:SCCF:53:1,2009-01-14T00:00:00Z,26.6493,-81.8810,2.253,6.87,1111122 
SCCF RECON,ioos:station:SCCF:53:1,2009-01-14T01:00:00Z,26.6493,-81.8810,2.233,6.97,1111122 
SCCF RECON,ioos:station:SCCF:53:1,2009-01-14T02:00:00Z,26.6493,-81.8810,2.172,7.18,1111122 
SCCF RECON,ioos:station:SCCF:53:1,2009-01-14T03:00:00Z,26.6493,-81.8810,2.13,6.92,1111122 
SCCF RECON,ioos:station:SCCF:53:1,2009-01-14T04:00:00Z,26.6493,-81.8810,2.09,6.56,1111122 
SCCF RECON,ioos:station:SCCF:53:1,2009-01-14T05:00:00Z,26.6493,-81.8810,2.041,6.68,1111122 
SCCF RECON,ioos:station:SCCF:53:1,2009-01-14T06:00:00Z,26.6493,-81.8810,2.03,6.51,1111122 
SCCF RECON,ioos:station:SCCF:53:1,2009-01-14T07:00:00Z,26.6493,-81.8810,2.08,6.85,1111122 
SCCF RECON,ioos:station:SCCF:53:1,2009-01-14T08:00:00Z,26.6493,-81.8810,2.11,6.83,1111122 
SCCF RECON,ioos:station:SCCF:53:1,2009-01-14T09:00:00Z,26.6493,-81.8810,2.12,6.68,1111122 
SCCF RECON,ioos:station:SCCF:53:1,2009-01-14T10:00:00Z,26.6493,-81.8810,2.14,6.57,1111122 
SCCF RECON,ioos:station:SCCF:53:1,2009-01-14T11:00:00Z,26.6493,-81.8810,2.11,6.33,1111122 
SCCF RECON,ioos:station:SCCF:53:1,2009-01-14T12:00:00Z,26.6493,-81.8810,2.07,6.42,1111122 
SCCF RECON,ioos:station:SCCF:53:1,2009-01-14T13:00:00Z,26.6493,-81.8810,2.03,6.29,1111122 
SCCF RECON,ioos:station:SCCF:53:1,2009-01-14T14:00:00Z,26.6493,-81.8810,2.0,6.06,1111122 
SCCF RECON,ioos:station:SCCF:53:1,2009-01-14T15:00:00Z,26.6493,-81.8810,1.96,5.78,1111122 
SCCF RECON,ioos:station:SCCF:53:1,2009-01-14T16:00:00Z,26.6493,-81.8810,1.91,5.78,1111122 
SCCF RECON,ioos:station:SCCF:53:1,2009-01-14T17:00:00Z,26.6493,-81.8810,1.86,5.91,1111122 
SCCF RECON,ioos:station:SCCF:53:1,2009-01-14T18:00:00Z,26.6493,-81.8810,1.811,6.2,1111122 
SCCF RECON,ioos:station:SCCF:53:1,2009-01-14T19:00:00Z,26.6493,-81.8810,1.79,6.2,1111122 
SCCF RECON,ioos:station:SCCF:53:1,2009-01-14T20:00:00Z,26.6493,-81.8810,1.83,6.33,1111122 
SCCF RECON,ioos:station:SCCF:53:1,2009-01-14T21:00:00Z,26.6493,-81.8810,1.882,6.56,1111122 
SCCF RECON,ioos:station:SCCF:53:1,2009-01-14T22:00:00Z,26.6493,-81.8810,1.93,6.68,1111122 
SCCF RECON,ioos:station:SCCF:53:1,2009-01-14T23:00:00Z,26.6493,-81.8810,1.98,6.71,1111122 
SCCF RECON,ioos:station:SCCF:53:1,2009-01-15T00:00:00Z,26.6493,-81.8810,2.02,7.0,1111122 
SCCF RECON,ioos:station:SCCF:53:1,2009-01-15T01:00:00Z,26.6493,-81.8810,2.02,6.7,1111122 
SCCF RECON,ioos:station:SCCF:53:1,2009-01-15T02:00:00Z,26.6493,-81.8810,1.99,6.95,1111122 
SCCF RECON,ioos:station:SCCF:53:1,2009-01-15T03:00:00Z,26.6493,-81.8810,1.96,6.44,1111122 
SCCF RECON,ioos:station:SCCF:53:1,2009-01-15T04:00:00Z,26.6493,-81.8810,1.926,6.79,1111122 
SCCF RECON,ioos:station:SCCF:53:1,2009-01-15T05:00:00Z,26.6493,-81.8810,1.89,7.13,1111122 
SCCF RECON,ioos:station:SCCF:53:1,2009-01-15T06:00:00Z,26.6493,-81.8810,1.877,7.43,1111122 
SCCF RECON,ioos:station:SCCF:53:1,2009-01-15T07:00:00Z,26.6493,-81.8810,1.91,7.39,1111122 
SCCF RECON,ioos:station:SCCF:53:1,2009-01-15T08:00:00Z,26.6493,-81.8810,1.941,7.65,1111122 
SCCF RECON,ioos:station:SCCF:53:1,2009-01-15T09:00:00Z,26.6493,-81.8810,1.972,7.56,1111122 
SCCF RECON,ioos:station:SCCF:53:1,2009-01-15T10:00:00Z,26.6493,-81.8810,2.001,7.38,1111122 
SCCF RECON,ioos:station:SCCF:53:1,2009-01-15T11:00:00Z,26.6493,-81.8810,2.03,7.3,1111122 
SCCF RECON,ioos:station:SCCF:53:1,2009-01-15T12:00:00Z,26.6493,-81.8810,2.02,7.19,1111122 
SCCF RECON,ioos:station:SCCF:53:1,2009-01-15T13:00:00Z,26.6493,-81.8810,1.98,7.36,1111122 
SCCF RECON,ioos:station:SCCF:53:1,2009-01-15T14:00:00Z,26.6493,-81.8810,1.96,7.08,1111122 
SCCF RECON,ioos:station:SCCF:53:1,2009-01-15T15:00:00Z,26.6493,-81.8810,1.92,7.06,1111122 
SCCF RECON,ioos:station:SCCF:53:1,2009-01-15T16:00:00Z,26.6493,-81.8810,1.88,7.21,1111122 
SCCF RECON,ioos:station:SCCF:53:1,2009-01-15T17:00:00Z,26.6493,-81.8810,1.84,7.1,1111122 
SCCF RECON,ioos:station:SCCF:53:1,2009-01-15T18:00:00Z,26.6493,-81.8810,1.799,7.25,1111122 
SCCF RECON,ioos:station:SCCF:53:1,2009-01-15T19:00:00Z,26.6493,-81.8810,1.78,7.41,1111122 
SCCF RECON,ioos:station:SCCF:53:1,2009-01-15T20:00:00Z,26.6493,-81.8810,1.81,7.54,1111122 
SCCF RECON,ioos:station:SCCF:53:1,2009-01-15T21:00:00Z,26.6493,-81.8810,1.855,7.74,1111122 
SCCF RECON,ioos:station:SCCF:53:1,2009-01-15T22:00:00Z,26.6493,-81.8810,1.88,7.82,1111122 
SCCF RECON,ioos:station:SCCF:53:1,2009-01-15T23:00:00Z,26.6493,-81.8810,1.92,7.56,1111122 
SCCF RECON,ioos:station:SCCF:53:1,2009-01-16T00:00:00Z,26.6493,-81.8810,1.951,7.57,1111122 
SCCF RECON,ioos:station:SCCF:53:1,2009-01-16T01:00:00Z,26.6493,-81.8810,1.95,7.49,1111122 
SCCF RECON,ioos:station:SCCF:53:1,2009-01-16T02:00:00Z,26.6493,-81.8810,1.93,7.31,1111122 
SCCF RECON,ioos:station:SCCF:53:1,2009-01-16T03:00:00Z,26.6493,-81.8810,1.897,7.37,1111122 
SCCF RECON,ioos:station:SCCF:53:1,2009-01-16T04:00:00Z,26.6493,-81.8810,1.861,7.4,1111122 
SCCF RECON,ioos:station:SCCF:53:1,2009-01-16T05:00:00Z,26.6493,-81.8810,1.821,7.41,1111122 
SCCF RECON,ioos:station:SCCF:53:1,2009-01-16T06:00:00Z,26.6493,-81.8810,1.785,7.49,1111122 
SCCF RECON,ioos:station:SCCF:53:1,2009-01-16T07:00:00Z,26.6493,-81.8810,1.769,7.29,1111122 
SCCF RECON,ioos:station:SCCF:53:1,2009-01-16T08:00:00Z,26.6493,-81.8810,1.737,7.48,1111122 
SCCF RECON,ioos:station:SCCF:53:1,2009-01-16T09:00:00Z,26.6493,-81.8810,1.736,7.46,1111122 
SCCF RECON,ioos:station:SCCF:53:1,2009-01-16T10:00:00Z,26.6493,-81.8810,1.75,7.66,1111122 
SCCF RECON,ioos:station:SCCF:53:1,2009-01-16T11:00:00Z,26.6493,-81.8810,1.76,7.76,1111122 
SCCF RECON,ioos:station:SCCF:53:1,2009-01-16T12:00:00Z,26.6493,-81.8810,1.769,7.73,1111122 
SCCF RECON,ioos:station:SCCF:53:1,2009-01-16T13:00:00Z,26.6493,-81.8810,1.767,7.51,1111122 
SCCF RECON,ioos:station:SCCF:53:1,2009-01-16T14:00:00Z,26.6493,-81.8810,1.74,7.58,1111122 
SCCF RECON,ioos:station:SCCF:53:1,2009-01-16T15:00:00Z,26.6493,-81.8810,1.716,7.61,1111122 
SCCF RECON,ioos:station:SCCF:53:1,2009-01-16T16:00:00Z,26.6493,-81.8810,1.69,8.07,1111122 
SCCF RECON,ioos:station:SCCF:53:1,2009-01-16T17:00:00Z,26.6493,-81.8810,1.65,7.81,1111122 
SCCF RECON,ioos:station:SCCF:53:1,2009-01-16T18:00:00Z,26.6493,-81.8810,1.61,8.06,1111122 
SCCF RECON,ioos:station:SCCF:53:1,2009-01-16T19:00:00Z,26.6493,-81.8810,1.593,8.2,1111122 
SCCF RECON,ioos:station:SCCF:53:1,2009-01-16T20:00:00Z,26.6493,-81.8810,1.628,8.47,1111122 
SCCF RECON,ioos:station:SCCF:53:1,2009-01-16T21:00:00Z,26.6493,-81.8810,1.67,8.73,1111122 
SCCF RECON,ioos:station:SCCF:53:1,2009-01-16T22:00:00Z,26.6493,-81.8810,1.717,8.63,1111122 
SCCF RECON,ioos:station:SCCF:53:1,2009-01-16T23:00:00Z,26.6493,-81.8810,1.764,8.66,1111122 
SCCF RECON,ioos:station:SCCF:53:1,2009-01-17T00:00:00Z,26.6493,-81.8810,1.816,8.68,1111122 
SCCF RECON,ioos:station:SCCF:53:1,2009-01-17T01:00:00Z,26.6493,-81.8810,1.854,8.72,1111122 
SCCF RECON,ioos:station:SCCF:53:1,2009-01-17T02:00:00Z,26.6493,-81.8810,1.87,8.39,1111122 
SCCF RECON,ioos:station:SCCF:53:1,2009-01-17T03:00:00Z,26.6493,-81.8810,1.85,8.16,1111122 
SCCF RECON,ioos:station:SCCF:53:1,2009-01-17T04:00:00Z,26.6493,-81.8810,1.81,8.41,1111122 
SCCF RECON,ioos:station:SCCF:53:1,2009-01-17T05:00:00Z,26.6493,-81.8810,1.78,8.39,1111122 
SCCF RECON,ioos:station:SCCF:53:1,2009-01-17T06:00:00Z,26.6493,-81.8810,1.74,8.34,1111122 
SCCF RECON,ioos:station:SCCF:53:1,2009-01-17T07:00:00Z,26.6493,-81.8810,1.71,8.24,1111122 
SCCF RECON,ioos:station:SCCF:53:1,2009-01-17T08:00:00Z,26.6493,-81.8810,1.68,8.18,1111122 
SCCF RECON,ioos:station:SCCF:53:1,2009-01-17T09:00:00Z,26.6493,-81.8810,1.66,8.08,1111122 
SCCF RECON,ioos:station:SCCF:53:1,2009-01-17T10:00:00Z,26.6493,-81.8810,1.66,8.2,1111122 
SCCF RECON,ioos:station:SCCF:53:1,2009-01-17T11:00:00Z,26.6493,-81.8810,1.668,8.35,1111122 
SCCF RECON,ioos:station:SCCF:53:1,2009-01-17T12:00:00Z,26.6493,-81.8810,1.68,8.51,1111122 
SCCF RECON,ioos:station:SCCF:53:1,2009-01-17T13:00:00Z,26.6493,-81.8810,1.697,8.54,1111122 
SCCF RECON,ioos:station:SCCF:53:1,2009-01-17T14:00:00Z,26.6493,-81.8810,1.711,8.42,1111122 
SCCF RECON,ioos:station:SCCF:53:1,2009-01-17T15:00:00Z,26.6493,-81.8810,1.708,8.43,1111122 
SCCF RECON,ioos:station:SCCF:53:1,2009-01-17T16:00:00Z,26.6493,-81.8810,1.681,8.52,1111122 
SCCF RECON,ioos:station:SCCF:53:1,2009-01-17T17:00:00Z,26.6493,-81.8810,1.653,8.84,1111122 
SCCF RECON,ioos:station:SCCF:53:1,2009-01-17T18:00:00Z,26.6493,-81.8810,1.63,9.32,1111122 
SCCF RECON,ioos:station:SCCF:53:1,2009-01-17T19:00:00Z,26.6493,-81.8810,1.63,9.39,1111122 
SCCF RECON,ioos:station:SCCF:53:1,2009-01-17T20:00:00Z,26.6493,-81.8810,1.665,9.78,1111122 
SCCF RECON,ioos:station:SCCF:53:1,2009-01-17T21:00:00Z,26.6493,-81.8810,1.702,9.57,1111122 
SCCF RECON,ioos:station:SCCF:53:1,2009-01-17T22:00:00Z,26.6493,-81.8810,1.75,9.27,1111122 
SCCF RECON,ioos:station:SCCF:53:1,2009-01-17T23:00:00Z,26.6493,-81.8810,1.8,9.0,1111122 
SCCF RECON,ioos:station:SCCF:53:1,2009-01-18T00:00:00Z,26.6493,-81.8810,1.86,8.79,1111122 
SCCF RECON,ioos:station:SCCF:53:1,2009-01-18T01:00:00Z,26.6493,-81.8810,1.913,8.8,1111122 
SCCF RECON,ioos:station:SCCF:53:1,2009-01-18T02:00:00Z,26.6493,-81.8810,1.96,8.76,1111122 
SCCF RECON,ioos:station:SCCF:53:1,2009-01-18T03:00:00Z,26.6493,-81.8810,1.98,8.74,1111122 
SCCF RECON,ioos:station:SCCF:53:1,2009-01-18T04:00:00Z,26.6493,-81.8810,1.97,8.51,1111122 
SCCF RECON,ioos:station:SCCF:53:1,2009-01-18T05:00:00Z,26.6493,-81.8810,1.94,8.28,1111122 
SCCF RECON,ioos:station:SCCF:53:1,2009-01-18T06:00:00Z,26.6493,-81.8810,1.91,8.49,1111122 
SCCF RECON,ioos:station:SCCF:53:1,2009-01-18T07:00:00Z,26.6493,-81.8810,1.87,8.6,1111122 
SCCF RECON,ioos:station:SCCF:53:1,2009-01-18T08:00:00Z,26.6493,-81.8810,1.83,8.44,1111122 
SCCF RECON,ioos:station:SCCF:53:1,2009-01-18T09:00:00Z,26.6493,-81.8810,1.8,8.27,1111122 
SCCF RECON,ioos:station:SCCF:53:1,2009-01-18T10:00:00Z,26.6493,-81.8810,1.784,8.47,1111122 
SCCF RECON,ioos:station:SCCF:53:1,2009-01-18T11:00:00Z,26.6493,-81.8810,1.81,8.58,1111122 
SCCF RECON,ioos:station:SCCF:53:1,2009-01-18T12:00:00Z,26.6493,-81.8810,1.84,8.77,1111122 
SCCF RECON,ioos:station:SCCF:53:1,2009-01-18T13:00:00Z,26.6493,-81.8810,1.87,8.67,1111122 
SCCF RECON,ioos:station:SCCF:53:1,2009-01-18T14:00:00Z,26.6493,-81.8810,1.91,8.7,1111122 
SCCF RECON,ioos:station:SCCF:53:1,2009-01-18T15:00:00Z,26.6493,-81.8810,1.94,8.99,1111122 
SCCF RECON,ioos:station:SCCF:53:1,2009-01-18T16:00:00Z,26.6493,-81.8810,1.954,8.9,1111122 
SCCF RECON,ioos:station:SCCF:53:1,2009-01-18T17:00:00Z,26.6493,-81.8810,1.953,8.79,1111122 
SCCF RECON,ioos:station:SCCF:53:1,2009-01-18T18:00:00Z,26.6493,-81.8810,1.96,8.91,1111122 
SCCF RECON,ioos:station:SCCF:53:1,2009-01-18T19:00:00Z,26.6493,-81.8810,1.972,8.79,1111122 
SCCF RECON,ioos:station:SCCF:53:1,2009-01-18T20:00:00Z,26.6493,-81.8810,1.998,8.42,1111122 
SCCF RECON,ioos:station:SCCF:53:1,2009-01-18T21:00:00Z,26.6493,-81.8810,2.03,8.49,1111122 
SCCF RECON,ioos:station:SCCF:53:1,2009-01-18T22:00:00Z,26.6493,-81.8810,2.07,8.31,1111122 
SCCF RECON,ioos:station:SCCF:53:1,2009-01-18T23:00:00Z,26.6493,-81.8810,2.112,8.59,1111122 
SCCF RECON,ioos:station:SCCF:53:1,2009-01-19T00:00:00Z,26.6493,-81.8810,2.154,8.85,1111122 
SCCF RECON,ioos:station:SCCF:53:1,2009-01-19T01:00:00Z,26.6493,-81.8810,2.19,8.85,1111122 
SCCF RECON,ioos:station:SCCF:53:1,2009-01-19T02:00:00Z,26.6493,-81.8810,2.2,8.66,1111122 
SCCF RECON,ioos:station:SCCF:53:1,2009-01-19T03:00:00Z,26.6493,-81.8810,2.196,8.41,1111122 
SCCF RECON,ioos:station:SCCF:53:1,2009-01-19T04:00:00Z,26.6493,-81.8810,2.16,8.53,1111122 
SCCF RECON,ioos:station:SCCF:53:1,2009-01-19T05:00:00Z,26.6493,-81.8810,2.11,8.32,1111122 
SCCF RECON,ioos:station:SCCF:53:1,2009-01-19T06:00:00Z,26.6493,-81.8810,2.06,8.49,1111122 
SCCF RECON,ioos:station:SCCF:53:1,2009-01-19T07:00:00Z,26.6493,-81.8810,2.018,8.4,1111122 
SCCF RECON,ioos:station:SCCF:53:1,2009-01-19T08:00:00Z,26.6493,-81.8810,1.965,8.31,1111122 
SCCF RECON,ioos:station:SCCF:53:1,2009-01-19T09:00:00Z,26.6493,-81.8810,1.92,8.36,1111122 
SCCF RECON,ioos:station:SCCF:53:1,2009-01-19T10:00:00Z,26.6493,-81.8810,1.89,8.25,1111122 
SCCF RECON,ioos:station:SCCF:53:1,2009-01-19T11:00:00Z,26.6493,-81.8810,1.881,8.17,1111122 
SCCF RECON,ioos:station:SCCF:53:1,2009-01-19T12:00:00Z,26.6493,-81.8810,1.899,7.94,1111122 
SCCF RECON,ioos:station:SCCF:53:1,2009-01-19T13:00:00Z,26.6493,-81.8810,1.939,8.02,1111122 
SCCF RECON,ioos:station:SCCF:53:1,2009-01-19T14:00:00Z,26.6493,-81.8810,1.967,8.03,1111122 
SCCF RECON,ioos:station:SCCF:53:1,2009-01-19T15:00:00Z,26.6493,-81.8810,2.0,8.05,1111122 
SCCF RECON,ioos:station:SCCF:53:1,2009-01-19T16:00:00Z,26.6493,-81.8810,2.029,7.91,1111122 
SCCF RECON,ioos:station:SCCF:53:1,2009-01-19T17:00:00Z,26.6493,-81.8810,2.042,8.03,1111122 
SCCF RECON,ioos:station:SCCF:53:1,2009-01-19T18:00:00Z,26.6493,-81.8810,2.059,8.31,1111122 
SCCF RECON,ioos:station:SCCF:53:1,2009-01-19T19:00:00Z,26.6493,-81.8810,2.077,8.69,1111122 
SCCF RECON,ioos:station:SCCF:53:1,2009-01-19T20:00:00Z,26.6493,-81.8810,2.088,8.45,1111122 
SCCF RECON,ioos:station:SCCF:53:1,2009-01-19T21:00:00Z,26.6493,-81.8810,2.098,8.47,1111122 
SCCF RECON,ioos:station:SCCF:53:1,2009-01-19T22:00:00Z,26.6493,-81.8810,2.131,8.43,1111122 
SCCF RECON,ioos:station:SCCF:53:1,2009-01-19T23:00:00Z,26.6493,-81.8810,2.174,8.53,1111122 
SCCF RECON,ioos:station:SCCF:53:1,2009-01-20T00:00:00Z,26.6493,-81.8810,2.22,8.6,1111122 
SCCF RECON,ioos:station:SCCF:53:1,2009-01-20T01:00:00Z,26.6493,-81.8810,2.266,8.68,1111122 
SCCF RECON,ioos:station:SCCF:53:1,2009-01-20T02:00:00Z,26.6493,-81.8810,2.3,8.75,1111122 
SCCF RECON,ioos:station:SCCF:53:1,2009-01-20T03:00:00Z,26.6493,-81.8810,2.311,8.62,1111122 
SCCF RECON,ioos:station:SCCF:53:1,2009-01-20T04:00:00Z,26.6493,-81.8810,2.294,8.26,1111122 
SCCF RECON,ioos:station:SCCF:53:1,2009-01-20T05:00:00Z,26.6493,-81.8810,2.258,8.57,1111122 
SCCF RECON,ioos:station:SCCF:53:1,2009-01-20T06:00:00Z,26.6493,-81.8810,2.214,8.52,1111122 
SCCF RECON,ioos:station:SCCF:53:1,2009-01-20T07:00:00Z,26.6493,-81.8810,2.178,8.44,1111122 
SCCF RECON,ioos:station:SCCF:53:1,2009-01-20T08:00:00Z,26.6493,-81.8810,2.164,8.32,1111122 
SCCF RECON,ioos:station:SCCF:53:1,2009-01-20T09:00:00Z,26.6493,-81.8810,2.107,8.48,1111122 
SCCF RECON,ioos:station:SCCF:53:1,2009-01-20T10:00:00Z,26.6493,-81.8810,2.06,8.17,1111122 
SCCF RECON,ioos:station:SCCF:53:1,2009-01-20T11:00:00Z,26.6493,-81.8810,2.027,7.91,1111122 
SCCF RECON,ioos:station:SCCF:53:1,2009-01-20T12:00:00Z,26.6493,-81.8810,2.003,8.08,1111122 
SCCF RECON,ioos:station:SCCF:53:1,2009-01-20T13:00:00Z,26.6493,-81.8810,1.98,8.04,1111122 
SCCF RECON,ioos:station:SCCF:53:1,2009-01-20T14:00:00Z,26.6493,-81.8810,1.95,7.76,1111122 
SCCF RECON,ioos:station:SCCF:53:1,2009-01-20T15:00:00Z,26.6493,-81.8810,1.932,8.21,1111122 
SCCF RECON,ioos:station:SCCF:53:1,2009-01-20T16:00:00Z,26.6493,-81.8810,1.929,8.38,1111122 